WZZ1092 EDLW-EPKT

Flight info

Callsign WZZ1092
Flight time 1h 10m
Altitude 37000
Route NUDGO3Q NUDGO Z858 ESADU DCT WRB DCT NOMKA DCT LASIS DCT GODLO T714 MOFKE
Aircraft A320/M-SDE3FGHIRWY/LB1

Departure

Time 2026-05-06 11:16
Airport Dortmund Airport (EDLW)

Arrival

Time 2026-05-06 12:26
Airport Katowice Wojciech Korfanty International Airport (EPKT)
Time Latitude Longitude Altitude Speed Heading
2026-05-06 11:01 51.51639 7.61478 433 ft 0 kts 151°
2026-05-06 11:06 51.51656 7.61464 418 ft 4 kts 166°
2026-05-06 11:07 51.51682 7.61459 419 ft 3 kts 178°
2026-05-06 11:07 51.51690 7.61458 418 ft 0 kts 178°
2026-05-06 11:12 51.51689 7.61458 429 ft 2 kts 178°
2026-05-06 11:12 51.51673 7.61432 419 ft 6 kts 229°
2026-05-06 11:13 51.51636 7.61341 432 ft 13 kts 241°
2026-05-06 11:13 51.51588 7.61174 430 ft 21 kts 249°
2026-05-06 11:13 51.51555 7.60971 420 ft 16 kts 254°
2026-05-06 11:13 51.51519 7.60824 422 ft 19 kts 241°
2026-05-06 11:14 51.51434 7.60616 428 ft 25 kts 238°
2026-05-06 11:14 51.51369 7.60414 430 ft 15 kts 255°
2026-05-06 11:14 51.51375 7.60313 424 ft 6 kts 297°
2026-05-06 11:14 51.51421 7.60246 429 ft 13 kts 331°
2026-05-06 11:15 51.51514 7.60303 424 ft 13 kts 62°
2026-05-06 11:15 51.51534 7.60364 419 ft 0 kts 61°
2026-05-06 11:15 51.51561 7.60444 420 ft 38 kts 62°
2026-05-06 11:15 51.51852 7.61240 416 ft 122 kts 60°
2026-05-06 11:16 51.52187 7.62153 412 ft 164 kts 58°
2026-05-06 11:16 51.52945 7.64319 1509 ft 166 kts 61°
2026-05-06 11:16 51.53440 7.66030 2510 ft 168 kts 65°
2026-05-06 11:16 51.53999 7.67740 3133 ft 184 kts 60°
2026-05-06 11:17 51.54681 7.69624 3596 ft 207 kts 60°
2026-05-06 11:17 51.55454 7.71727 4123 ft 227 kts 60°
2026-05-06 11:17 51.56189 7.74065 4742 ft 246 kts 76°
2026-05-06 11:17 51.56145 7.76881 5677 ft 250 kts 111°
2026-05-06 11:18 51.55373 7.79386 6715 ft 251 kts 119°
2026-05-06 11:18 51.54857 7.81061 7401 ft 253 kts 118°
2026-05-06 11:18 51.54083 7.83702 8215 ft 272 kts 117°
2026-05-06 11:18 51.53005 7.87470 9561 ft 285 kts 117°
2026-05-06 11:19 51.52407 7.89411 10236 ft 288 kts 122°
2026-05-06 11:19 51.50733 7.92770 11389 ft 302 kts 135°
2026-05-06 11:19 51.49725 7.94467 11715 ft 318 kts 136°
2026-05-06 11:19 51.48152 7.97083 12109 ft 342 kts 136°
2026-05-06 11:20 51.45875 8.00844 12996 ft 359 kts 136°
2026-05-06 11:20 51.44728 8.02781 13582 ft 364 kts 133°
2026-05-06 11:20 51.43247 8.06130 14396 ft 372 kts 121°
2026-05-06 11:20 51.42208 8.09963 15169 ft 379 kts 109°
2026-05-06 11:21 51.41685 8.14135 15928 ft 386 kts 96°
2026-05-06 11:21 51.41625 8.18472 16691 ft 392 kts 91°
2026-05-06 11:21 51.41604 8.22849 17492 ft 396 kts 92°
2026-05-06 11:21 51.41563 8.27284 18266 ft 401 kts 92°
2026-05-06 11:22 51.41510 8.31775 18977 ft 405 kts 92°
2026-05-06 11:22 51.41451 8.36315 19712 ft 409 kts 92°
2026-05-06 11:22 51.41395 8.40880 20450 ft 413 kts 92°
2026-05-06 11:22 51.41342 8.45485 21146 ft 416 kts 92°
2026-05-06 11:23 51.41291 8.50090 21820 ft 420 kts 92°
2026-05-06 11:23 51.41243 8.54777 22492 ft 424 kts 92°
2026-05-06 11:23 51.41194 8.59534 23168 ft 427 kts 92°
2026-05-06 11:23 51.41140 8.64310 23756 ft 431 kts 92°
2026-05-06 11:24 51.41083 8.69131 24289 ft 435 kts 92°
2026-05-06 11:24 51.41270 8.73995 24802 ft 441 kts 83°
2026-05-06 11:24 51.41964 8.78809 25312 ft 447 kts 73°
2026-05-06 11:24 51.43122 8.83441 25790 ft 452 kts 67°
2026-05-06 11:25 51.44388 8.88075 26303 ft 456 kts 67°
2026-05-06 11:25 51.45658 8.92753 26814 ft 460 kts 68°
2026-05-06 11:25 51.46931 8.97482 27281 ft 464 kts 68°
2026-05-06 11:25 51.48193 9.02189 27774 ft 468 kts 68°
2026-05-06 11:26 51.49371 9.07079 28240 ft 472 kts 74°
2026-05-06 11:26 51.50094 9.12231 28710 ft 474 kts 84°
2026-05-06 11:26 51.50301 9.17495 29308 ft 472 kts 93°
2026-05-06 11:26 51.50129 9.22735 30003 ft 470 kts 96°
2026-05-06 11:27 51.49936 9.27970 30647 ft 470 kts 96°
2026-05-06 11:27 51.49750 9.33214 31278 ft 470 kts 96°
2026-05-06 11:27 51.49564 9.38431 31887 ft 470 kts 96°
2026-05-06 11:27 51.49372 9.43686 32516 ft 470 kts 96°
2026-05-06 11:28 51.49174 9.48914 33135 ft 470 kts 97°
2026-05-06 11:28 51.48968 9.54163 33757 ft 471 kts 97°
2026-05-06 11:28 51.48758 9.59391 34287 ft 471 kts 97°
2026-05-06 11:28 51.48547 9.64573 34819 ft 471 kts 97°
2026-05-06 11:29 51.48329 9.69879 35355 ft 470 kts 97°
2026-05-06 11:29 51.48116 9.75030 35877 ft 470 kts 97°
2026-05-06 11:29 51.47900 9.80268 36394 ft 469 kts 97°
2026-05-06 11:29 51.47684 9.85490 36713 ft 471 kts 97°
2026-05-06 11:30 51.47465 9.90722 36773 ft 473 kts 97°
2026-05-06 11:30 51.47012 10.01272 36780 ft 475 kts 97°
2026-05-06 11:31 51.46554 10.11781 36776 ft 475 kts 97°
2026-05-06 11:31 51.46078 10.22347 36773 ft 475 kts 97°
2026-05-06 11:32 51.45591 10.32895 36768 ft 475 kts 97°
2026-05-06 11:32 51.45091 10.43588 36768 ft 475 kts 97°
2026-05-06 11:33 51.44812 10.54096 36767 ft 476 kts 92°
2026-05-06 11:33 51.44918 10.64861 36766 ft 477 kts 92°
2026-05-06 11:34 51.45013 10.75502 36771 ft 477 kts 92°
2026-05-06 11:34 51.45088 10.86110 36767 ft 477 kts 92°
2026-05-06 11:35 51.45149 10.96744 36774 ft 477 kts 92°
2026-05-06 11:35 51.45201 11.07380 36770 ft 477 kts 92°
2026-05-06 11:36 51.45250 11.17950 36775 ft 477 kts 92°
2026-05-06 11:36 51.45291 11.28606 36778 ft 477 kts 92°
2026-05-06 11:37 51.45325 11.39255 36782 ft 478 kts 92°
2026-05-06 11:37 51.45346 11.49908 36787 ft 478 kts 92°
2026-05-06 11:38 51.45358 11.60485 36791 ft 478 kts 93°
2026-05-06 11:38 51.45356 11.71135 36789 ft 478 kts 93°
2026-05-06 11:39 51.45338 11.81791 36790 ft 478 kts 93°
2026-05-06 11:39 51.45315 11.92484 36788 ft 478 kts 93°
2026-05-06 11:40 51.45288 12.03122 36790 ft 478 kts 93°
2026-05-06 11:40 51.45256 12.13792 36787 ft 478 kts 93°
2026-05-06 11:41 51.45210 12.24383 36786 ft 478 kts 93°
2026-05-06 11:41 51.45147 12.35033 36781 ft 478 kts 93°
2026-05-06 11:42 51.45073 12.45666 36777 ft 478 kts 93°
2026-05-06 11:42 51.44996 12.56334 36769 ft 478 kts 93°
2026-05-06 11:43 51.44918 12.66918 36769 ft 478 kts 94°
2026-05-06 11:43 51.44822 12.77576 36776 ft 478 kts 94°
2026-05-06 11:44 51.44659 12.93630 36776 ft 478 kts 94°
2026-05-06 11:44 51.44537 13.04294 36783 ft 479 kts 94°
2026-05-06 11:45 51.44403 13.14969 36786 ft 479 kts 94°
2026-05-06 11:45 51.44259 13.25831 36789 ft 479 kts 94°
2026-05-06 11:46 51.44109 13.36378 36785 ft 478 kts 94°
2026-05-06 11:46 51.43950 13.47042 36788 ft 479 kts 94°
2026-05-06 11:47 51.43781 13.57705 36788 ft 479 kts 94°
2026-05-06 11:47 51.43606 13.68353 36794 ft 479 kts 94°
2026-05-06 11:48 51.43414 13.79040 36787 ft 479 kts 95°
2026-05-06 11:48 51.43218 13.89625 36788 ft 478 kts 95°
2026-05-06 11:49 51.43007 14.00332 36785 ft 478 kts 95°
2026-05-06 11:49 51.42787 14.10922 36784 ft 479 kts 95°
2026-05-06 11:50 51.42562 14.21652 36777 ft 479 kts 95°
2026-05-06 11:50 51.42326 14.32292 36781 ft 479 kts 95°
2026-05-06 11:51 51.42076 14.42915 36781 ft 479 kts 95°
2026-05-06 11:51 51.41818 14.53583 36824 ft 479 kts 96°
2026-05-06 11:52 51.41557 14.64255 36800 ft 479 kts 96°
2026-05-06 11:52 51.41282 14.74920 36790 ft 479 kts 96°
2026-05-06 11:53 51.40993 14.85557 36780 ft 479 kts 96°
2026-05-06 11:53 51.40367 14.96129 36777 ft 473 kts 107°
2026-05-06 11:54 51.38232 15.05896 36773 ft 466 kts 117°
2026-05-06 11:54 51.35766 15.15576 36766 ft 466 kts 117°
2026-05-06 11:55 51.33318 15.25185 36766 ft 466 kts 117°
2026-05-06 11:55 51.30862 15.34783 36764 ft 466 kts 117°
2026-05-06 11:56 51.28404 15.44369 36770 ft 466 kts 117°
2026-05-06 11:56 51.25914 15.53999 36777 ft 466 kts 118°
2026-05-06 11:57 51.23416 15.63596 36774 ft 465 kts 118°
2026-05-06 11:57 51.20919 15.73147 36774 ft 465 kts 118°
2026-05-06 11:58 51.18431 15.82674 36770 ft 465 kts 118°
2026-05-06 11:58 51.15937 15.92173 36774 ft 466 kts 118°
2026-05-06 11:59 51.13416 16.01688 36781 ft 466 kts 118°
2026-05-06 11:59 51.10897 16.11175 36772 ft 466 kts 118°
2026-05-06 12:00 51.08377 16.20664 36772 ft 466 kts 118°
2026-05-06 12:00 51.05850 16.30150 36768 ft 466 kts 118°
2026-05-06 12:01 51.03306 16.39633 36765 ft 467 kts 118°
2026-05-06 12:01 51.00758 16.49041 36767 ft 467 kts 118°
2026-05-06 12:02 50.98211 16.58523 36765 ft 468 kts 118°
2026-05-06 12:02 50.95702 16.68055 36763 ft 468 kts 118°
2026-05-06 12:03 50.93170 16.77614 36764 ft 469 kts 118°
2026-05-06 12:03 50.90629 16.87099 36762 ft 470 kts 118°
2026-05-06 12:04 50.88059 16.96640 36775 ft 470 kts 118°
2026-05-06 12:04 50.85926 17.04548 36784 ft 470 kts 118°
2026-05-06 12:05 50.82927 17.15602 36776 ft 471 kts 118°
2026-05-06 12:05 50.80760 17.23502 36783 ft 471 kts 118°
2026-05-06 12:06 50.77691 17.34582 36790 ft 471 kts 118°
2026-05-06 12:06 50.75051 17.44043 36791 ft 471 kts 118°
2026-05-06 12:07 50.72852 17.51903 36789 ft 471 kts 118°
2026-05-06 12:07 50.70242 17.61371 36787 ft 471 kts 118°
2026-05-06 12:08 50.67233 17.72402 36779 ft 471 kts 118°
2026-05-06 12:08 50.66356 17.75600 36600 ft 471 kts 118°
2026-05-06 12:08 50.65032 17.80397 36334 ft 470 kts 118°
2026-05-06 12:09 50.63725 17.85107 36072 ft 469 kts 118°
2026-05-06 12:09 50.62415 17.89805 35381 ft 472 kts 119°
2026-05-06 12:09 50.61084 17.94563 34411 ft 477 kts 119°
2026-05-06 12:09 50.59822 17.99442 33379 ft 485 kts 114°
2026-05-06 12:10 50.58892 18.04594 32360 ft 493 kts 106°
2026-05-06 12:10 50.58425 18.09989 31244 ft 501 kts 97°
2026-05-06 12:10 50.58238 18.15522 30302 ft 500 kts 97°
2026-05-06 12:10 50.58076 18.20996 29073 ft 502 kts 96°
2026-05-06 12:11 50.57923 18.26489 27797 ft 504 kts 96°
2026-05-06 12:11 50.57771 18.31974 26711 ft 501 kts 96°
2026-05-06 12:11 50.57612 18.37441 25698 ft 497 kts 96°
2026-05-06 12:11 50.57447 18.42841 24777 ft 491 kts 96°
2026-05-06 12:12 50.57273 18.48165 23840 ft 485 kts 96°
2026-05-06 12:12 50.57084 18.53379 22885 ft 480 kts 96°
2026-05-06 12:12 50.56880 18.58620 21951 ft 472 kts 96°
2026-05-06 12:12 50.56674 18.63766 20998 ft 467 kts 96°
2026-05-06 12:13 50.56473 18.68819 20133 ft 459 kts 96°
2026-05-06 12:13 50.56303 18.73785 19346 ft 451 kts 95°
2026-05-06 12:13 50.56256 18.78669 18893 ft 437 kts 93°
2026-05-06 12:13 50.56309 18.83346 18774 ft 417 kts 91°
2026-05-06 12:14 50.56401 18.87843 18654 ft 399 kts 91°
2026-05-06 12:14 50.56491 18.92106 18538 ft 382 kts 92°
2026-05-06 12:14 50.56562 18.96185 18423 ft 366 kts 92°
2026-05-06 12:14 50.56612 19.00144 18175 ft 357 kts 93°
2026-05-06 12:15 50.56616 19.04047 17587 ft 358 kts 94°
2026-05-06 12:15 50.56584 19.07924 17241 ft 352 kts 95°
2026-05-06 12:15 50.56539 19.11763 16817 ft 349 kts 95°
2026-05-06 12:15 50.56494 19.15560 16395 ft 347 kts 95°
2026-05-06 12:16 50.56456 19.19289 15986 ft 344 kts 94°
2026-05-06 12:16 50.56427 19.23045 15572 ft 342 kts 94°
2026-05-06 12:16 50.56400 19.26785 15180 ft 340 kts 94°
2026-05-06 12:16 50.56373 19.30528 14827 ft 336 kts 94°
2026-05-06 12:17 50.56349 19.34144 14718 ft 325 kts 94°
2026-05-06 12:17 50.56327 19.37651 14593 ft 316 kts 94°
2026-05-06 12:17 50.56307 19.41065 14471 ft 307 kts 94°
2026-05-06 12:17 50.56289 19.44372 14315 ft 300 kts 94°
2026-05-06 12:18 50.56268 19.47629 14085 ft 297 kts 94°
2026-05-06 12:18 50.56245 19.50881 13856 ft 295 kts 94°
2026-05-06 12:18 50.56223 19.54139 13622 ft 294 kts 94°
2026-05-06 12:18 50.56204 19.57350 13386 ft 293 kts 94°
2026-05-06 12:19 50.56010 19.60501 13123 ft 285 kts 113°
2026-05-06 12:19 50.54965 19.63022 12886 ft 270 kts 144°
2026-05-06 12:19 50.53348 19.64296 12587 ft 258 kts 174°
2026-05-06 12:19 50.51579 19.64407 12308 ft 254 kts 185°
2026-05-06 12:20 50.49811 19.64299 12065 ft 251 kts 193°
2026-05-06 12:20 50.48288 19.63154 11782 ft 244 kts 225°
2026-05-06 12:20 50.47449 19.60922 11493 ft 244 kts 255°
2026-05-06 12:20 50.47392 19.58246 11180 ft 247 kts 269°
2026-05-06 12:21 50.47432 19.55554 10878 ft 247 kts 268°
2026-05-06 12:21 50.47448 19.52872 10608 ft 246 kts 267°
2026-05-06 12:21 50.47455 19.50153 10143 ft 253 kts 267°
2026-05-06 12:21 50.47459 19.47332 9496 ft 266 kts 267°
2026-05-06 12:22 50.47466 19.44393 8803 ft 267 kts 267°
2026-05-06 12:22 50.47479 19.41540 8153 ft 257 kts 268°
2026-05-06 12:22 50.47494 19.38769 7415 ft 252 kts 268°
2026-05-06 12:22 50.47507 19.36049 6681 ft 248 kts 267°
2026-05-06 12:23 50.47512 19.33396 5944 ft 244 kts 267°
2026-05-06 12:23 50.47520 19.30730 5009 ft 247 kts 268°
2026-05-06 12:23 50.47531 19.28009 4001 ft 251 kts 267°
2026-05-06 12:23 50.47542 19.25251 3016 ft 256 kts 268°
2026-05-06 12:24 50.47555 19.22542 2605 ft 239 kts 268°
2026-05-06 12:24 50.47566 19.20032 2309 ft 220 kts 267°
2026-05-06 12:24 50.47574 19.17748 2029 ft 200 kts 267°
2026-05-06 12:24 50.47581 19.15715 1789 ft 176 kts 267°
2026-05-06 12:25 50.47586 19.13924 1553 ft 153 kts 268°
2026-05-06 12:25 50.47591 19.12395 1369 ft 130 kts 269°
2026-05-06 12:25 50.47594 19.11009 1191 ft 126 kts 266°
2026-05-06 12:25 50.47597 19.09629 1024 ft 126 kts 265°
2026-05-06 12:26 50.47599 19.08438 997 ft 85 kts 270°
2026-05-06 12:26 50.47601 19.07724 995 ft 55 kts 270°
2026-05-06 12:26 50.47594 19.07257 997 ft 39 kts 265°
2026-05-06 12:26 50.47527 19.06935 991 ft 15 kts 238°
2026-05-06 12:27 50.47450 19.06750 986 ft 25 kts 236°
2026-05-06 12:27 50.47354 19.06630 985 ft 18 kts 170°
2026-05-06 12:27 50.47261 19.06660 989 ft 13 kts 141°
2026-05-06 12:27 50.47234 19.06829 990 ft 20 kts 90°
2026-05-06 12:28 50.47230 19.07071 989 ft 26 kts 91°
2026-05-06 12:28 50.47228 19.07239 990 ft 12 kts 91°
2026-05-06 12:28 50.47228 19.07286 991 ft 7 kts 91°
2026-05-06 12:28 50.47218 19.07335 991 ft 1 kts 128°
2026-05-06 12:29 50.47191 19.07352 991 ft 3 kts 181°
2026-05-06 12:29 50.47174 19.07337 993 ft 0 kts 212°